User: anonymous   Login
Location: NJAA Observatory
(40.6819°N, 74.8979°W)
Time: 07:22:31
(UTC-04:00)
Language:

Meteor 1-28 Rocket - Orbit

View from above orbital plane
View from above orbital plane
View from above satellite
View from above satellite

Ground track
Ground track

The orbit data is extracted from the following two-line orbital elements,

1 10114U 77057B   15187.17445682  .00001524  00000-0  83972-4 0  9997
2 10114 097.2275 034.2255 0012884 288.4006 071.5826 15.15375012 75666
Epoch (UTC): 06 July 2015 04:11:13
Eccentricity: 0.0012884
inclination: 97.2275°
perigee height: 511 km
apogee height: 529 km
right ascension of ascending node: 34.2255°
argument of perigee: 288.4006°
revolutions per day: 15.15375012
mean anomaly at epoch: 71.5826°
orbit number at epoch: 7566

The dashed part of the orbit path shows where the satellite is in the earth's shadow,  

DLR